Location: Costa Mesa
(33.6411°N, 117.9187°W)
Time: 03:15:06
(UTC+00:00)

Cosmos 2058 Rocket - Pass Details

Date: 10 September 2024
Orbit: 607 x 634 km, 82.5° (Epoch: 10 October)

Event Time Altitude Azimuth Distance (km) Brightness Sun altitude
Rises 12:24:48 0° 175° (S) 2,874 6.4 -14.6°
Reaches altitude 10° 12:27:02 10° 171° (S) 1,977 5.6 -14.1°
Maximum altitude 12:31:19 56° 93° (E) 743 3.8 -13.3°
Drops below altitude 10° 12:35:40 10° 16° (NNE) 2,008 6.1 -12.4°
Sets 12:37:57 0° 12° (NNE) 2,923 6.9 -11.9°
